Regional Weather Roundup
Issued by NWS Kansas City/Pleasant Hill, MO

Home | Current Version | Previous Version | Graphics & Text | Print | Product List | Glossary Off
Versions: 1 2 3 4 5 6 7 8 9 10 11 12 13 14 15 16 17 18 19 20 21 22 23 24 25 26 27

000
ASUS43 KEAX 180910
RWREAX

WEATHER ROUNDUP FOR EASTERN KANSAS AND NORTHWEST MISSOURI
NATIONAL WEATHER SERVICE KANSAS CITY/PLEASANT HILL MO
300 AM CST THU JAN 18 2018

KSZ040-057-103>105-MOZ028-029-037-043-181000-
...KANSAS CITY METROPOLITAN AREA...

CITY           SKY/WX    TMP DP  RH WIND       PRES   REMARKS
K.C. INTL      CLOUDY    17   8  67 SW10      30.33F WCI   5
K.C. DOWNTOWN  CLOUDY    21   8  57 SW9       30.36F WCI  11
LEES SUMMIT    CLOUDY    18   8  65 SW12      30.36F WCI   5
OLATHE - IXD   CLOUDY    19   9  65 SW17      30.36S WCI   4
OLATHE - OJC   CLOUDY    15   7  70 SW6       30.36S WCI   6
LAWRENCE       CLOUDY    20   8  60 S6        30.35F WCI  12

$$

MOZ001>008-011>017-020>025-030>033-038>040-044>046-053-054-181000-
...NORTHERN AND CENTRAL MISSOURI...

CITY           SKY/WX    TMP DP  RH WIND       PRES   REMARKS
ST. JOSEPH     CLOUDY    14  10  84 S6        30.32F WCI   5
MOSBY          CLOUDY    12   9  85 CALM      30.36F
WARRENSBURG    CLOUDY    14   9  79 S7        30.40S WCI   4
WHITEMAN AFB   CLOUDY    16   6  65 SW10      30.34F WCI   4
CLINTON        CLOUDY    16   9  73 MISG      30.42S
SEDALIA        CLOUDY    20  10  65 SW16G23   30.39F WCI   6
WARSAW         NOT AVBL
CHILLICOTHE      N/A     13   8  81 S7        30.34F WCI   3
KIRKSVILLE     CLOUDY    16  11  80 SW12      30.31S WCI   3

$$

MOZ041-047>049-056>058-063>065-088>090-097-181000-
...EASTERN AND SOUTHERN MISSOURI...

CITY           SKY/WX    TMP DP  RH WIND       PRES   REMARKS
ST. LOUIS INTL NOT AVBL
SPIRIT OF STL  CLOUDY    18   9  68 W8        30.42S WCI   8
COLUMBIA       CLOUDY    12   7  80 SW10      30.39F WCI  -1
JEFFERSON CITY CLOUDY    16   7  67 SE5       30.44S WCI   9
ROLLA          CLOUDY    14   7  73 SW12      30.41S WCI   0
OSAGE BEACH    CLOUDY    10   5  80 S6        30.44S WCI   0
SPRINGFIELD    CLEAR     11   3  70 S7        30.42S WCI   0
BRANSON        CLOUDY    18   5  57 SW5       30.45S WCI  11
JOPLIN         CLOUDY    21   8  57 SW13      30.45S WCI   9
WEST PLAINS    CLEAR     15   7  70 SW5       30.45S WCI   8

$$

IAZ060-094-KSZ022-034>040-054-083-096-NEZ052-066-093-181000-
...KANSAS...SOUTHEAST NEBRASKA AND IOWA...

CITY           SKY/WX    TMP DP  RH WIND       PRES   REMARKS
TOPEKA         CLOUDY    16   8  71 SE5       30.33F WCI   9
MANHATTAN      CLEAR     21   9  59 SW8       30.29F WCI  11
EMPORIA        CLOUDY    16   8  71 S9        30.33F WCI   4
CHANUTE          N/A    N/A N/A N/A MISG      30.41F
WICHITA        CLOUDY    20   8  60 S13       30.34F WCI   7
OMAHA          CLOUDY    14   9  80 SE8       30.23S WCI   3
LINCOLN        CLOUDY    19   9  65 SW8       30.23F WCI   9
FALLS CITY     CLOUDY    15   8  73 SE3       30.27F
LAMONI         CLOUDY    17  10  74 SW14      30.25F WCI   3
DES MOINES     CLEAR     22  11  62 SW13      30.20S WCI  10

$$





USA.gov is the U.S. government's official web portal to all federal, state and local government web resources and services.